Time,TemperatureF,DewpointF,PressureIn,WindDirection,WindDirectionDegrees,WindSpeedMPH,WindSpeedGustMPH,Humidity,HourlyPrecipIn,Conditions,Clouds,dailyrainin,SoftwareType,DateUTC
2013-09-22 00:01:00,73.6,71.4,29.66,NE,45,1.0,2.0,93,0.00,,,0.02,meteohub,2013-09-22 04:01:00,
2013-09-22 00:02:00,73.6,71.4,29.66,NE,45,1.0,2.0,93,0.00,,,0.02,meteohub,2013-09-22 04:02:00,
2013-09-22 00:07:00,73.6,71.4,29.66,NE,45,1.0,2.0,93,0.00,,,0.02,meteohub,2013-09-22 04:07:00,
2013-09-22 00:12:00,73.8,71.6,29.66,North,0,1.0,2.0,93,0.00,,,0.02,meteohub,2013-09-22 04:12:00,
2013-09-22 00:17:00,73.6,71.4,29.66,NE,45,1.0,1.0,93,0.00,,,0.02,meteohub,2013-09-22 04:17:00,
2013-09-22 00:22:00,73.6,71.4,29.66,North,0,1.0,1.0,93,0.00,,,0.02,meteohub,2013-09-22 04:22:00,
2013-09-22 00:27:00,73.4,71.6,29.66,North,0,0.0,1.0,94,0.00,,,0.02,meteohub,2013-09-22 04:27:00,
2013-09-22 00:32:00,73.4,71.6,29.66,NE,45,1.0,1.0,94,0.00,,,0.02,meteohub,2013-09-22 04:32:00,
2013-09-22 00:37:00,73.2,71.1,29.66,SE,135,1.0,1.0,93,0.00,,,0.02,meteohub,2013-09-22 04:37:00,
2013-09-22 00:43:00,73.2,71.1,29.66,North,0,1.0,1.0,93,0.00,,,0.02,meteohub,2013-09-22 04:43:00,
2013-09-22 00:48:00,73.4,71.2,29.66,NE,45,1.0,1.0,93,0.00,,,0.02,meteohub,2013-09-22 04:48:00,
2013-09-22 00:54:00,73.8,71.2,29.66,NE,45,1.0,1.0,92,0.00,,,0.02,meteohub,2013-09-22 04:54:00,
2013-09-22 00:59:00,73.8,71.2,29.66,North,0,1.0,1.0,92,0.00,,,0.02,meteohub,2013-09-22 04:59:00,
2013-09-22 01:04:00,73.8,71.2,29.66,East,90,1.0,1.0,92,0.00,,,0.02,meteohub,2013-09-22 05:04:00,
2013-09-22 01:09:00,73.6,71.1,29.66,North,0,1.0,1.0,92,0.00,,,0.00,meteohub,2013-09-22 05:09:00,
2013-09-22 01:15:00,73.4,70.9,29.66,NE,45,1.0,1.0,92,0.00,,,0.00,meteohub,2013-09-22 05:15:00,
2013-09-22 01:20:00,73.2,70.5,29.66,NE,45,1.0,1.0,91,0.00,,,0.00,meteohub,2013-09-22 05:20:00,
2013-09-22 01:25:00,73.0,70.3,29.66,NE,45,1.0,1.0,91,0.00,,,0.00,meteohub,2013-09-22 05:25:00,
2013-09-22 01:30:00,72.9,70.2,29.65,NNE,23,0.0,1.0,91,0.00,,,0.00,meteohub,2013-09-22 05:30:00,
2013-09-22 01:35:00,72.7,70.2,29.65,NE,45,0.0,1.0,92,0.00,,,0.00,meteohub,2013-09-22 05:35:00,
2013-09-22 01:40:00,72.5,70.0,29.65,NE,45,1.0,1.0,92,0.00,,,0.00,meteohub,2013-09-22 05:40:00,
2013-09-22 01:45:00,72.1,69.6,29.65,NE,45,0.0,1.0,92,0.00,,,0.00,meteohub,2013-09-22 05:45:00,
2013-09-22 01:50:00,72.0,69.8,29.65,NE,45,0.0,1.0,93,0.00,,,0.00,meteohub,2013-09-22 05:50:00,
2013-09-22 01:55:00,71.8,69.6,29.65,NE,45,0.0,1.0,93,0.00,,,0.00,meteohub,2013-09-22 05:55:00,
2013-09-22 02:00:00,71.6,69.4,29.65,NE,45,0.0,1.0,93,0.00,,,0.00,meteohub,2013-09-22 06:00:00,
2013-09-22 02:05:00,71.6,69.4,29.65,NE,45,0.0,1.0,93,0.00,,,0.00,meteohub,2013-09-22 06:05:00,
2013-09-22 02:10:00,71.1,69.6,29.66,NE,45,0.0,0.0,95,0.00,,,0.00,meteohub,2013-09-22 06:10:00,
2013-09-22 02:15:00,70.9,69.4,29.66,NE,45,0.0,0.0,95,0.00,,,0.00,meteohub,2013-09-22 06:15:00,
2013-09-22 02:20:00,70.9,69.4,29.65,NE,45,0.0,0.0,95,0.00,,,0.00,meteohub,2013-09-22 06:20:00,
2013-09-22 02:25:00,70.9,69.6,29.65,NE,45,0.0,1.0,96,0.00,,,0.00,meteohub,2013-09-22 06:25:00,
2013-09-22 02:30:00,70.9,69.6,29.65,North,0,0.0,1.0,96,0.00,,,0.00,meteohub,2013-09-22 06:30:00,
2013-09-22 02:35:00,70.9,70.0,29.66,North,0,1.0,1.0,97,0.00,,,0.00,meteohub,2013-09-22 06:35:00,
2013-09-22 02:40:00,70.9,70.3,29.66,NE,45,0.0,1.0,98,0.00,,,0.00,meteohub,2013-09-22 06:40:00,
2013-09-22 02:45:00,70.9,70.3,29.65,NW,315,1.0,1.0,98,0.00,,,0.00,meteohub,2013-09-22 06:45:00,
2013-09-22 02:50:00,71.1,70.5,29.65,North,0,1.0,2.0,98,0.00,,,0.00,meteohub,2013-09-22 06:50:00,
2013-09-22 02:55:00,71.2,70.7,29.66,NE,45,1.0,2.0,98,0.00,,,0.00,meteohub,2013-09-22 06:55:00,
2013-09-22 03:00:00,71.2,70.7,29.66,NE,45,1.0,1.0,98,0.00,,,0.00,meteohub,2013-09-22 07:00:00,
2013-09-22 03:05:00,71.4,70.9,29.65,North,0,2.0,2.0,98,0.00,,,0.00,meteohub,2013-09-22 07:05:00,
2013-09-22 03:10:00,71.6,70.7,29.66,North,0,1.0,2.0,97,0.00,,,0.00,meteohub,2013-09-22 07:10:00,
2013-09-22 03:15:00,71.8,70.5,29.65,North,0,1.0,2.0,96,0.00,,,0.00,meteohub,2013-09-22 07:15:00,
2013-09-22 03:20:00,72.0,70.7,29.65,NE,45,2.0,2.0,96,0.00,,,0.00,meteohub,2013-09-22 07:20:00,
2013-09-22 03:25:00,72.1,70.7,29.65,NE,45,1.0,2.0,95,0.00,,,0.00,meteohub,2013-09-22 07:25:00,
2013-09-22 03:30:00,72.1,70.7,29.66,North,0,1.0,2.0,95,0.00,,,0.00,meteohub,2013-09-22 07:30:00,
2013-09-22 03:35:00,72.1,70.7,29.65,NE,45,2.0,2.0,95,0.00,,,0.00,meteohub,2013-09-22 07:35:00,
2013-09-22 03:40:00,72.1,70.7,29.65,North,0,1.0,2.0,95,0.00,,,0.00,meteohub,2013-09-22 07:40:00,
2013-09-22 03:45:00,72.1,70.7,29.65,North,0,1.0,2.0,95,0.00,,,0.00,meteohub,2013-09-22 07:45:00,
2013-09-22 03:50:00,72.1,70.7,29.65,North,0,2.0,2.0,95,0.00,,,0.00,meteohub,2013-09-22 07:50:00,
2013-09-22 03:55:00,72.3,70.5,29.65,ENE,68,4.0,5.0,94,0.00,,,0.00,meteohub,2013-09-22 07:55:00,
2013-09-22 04:00:00,72.5,70.7,29.65,NE,45,3.0,5.0,94,0.00,,,0.00,meteohub,2013-09-22 08:00:00,
2013-09-22 04:05:00,72.5,70.7,29.64,NE,45,3.0,5.0,94,0.00,,,0.00,meteohub,2013-09-22 08:05:00,
2013-09-22 04:10:00,72.5,70.3,29.64,North,0,2.0,4.0,93,0.00,,,0.00,meteohub,2013-09-22 08:10:00,
2013-09-22 04:15:00,72.5,70.0,29.63,North,0,1.0,3.0,92,0.00,,,0.00,meteohub,2013-09-22 08:15:00,
2013-09-22 04:20:00,72.5,70.0,29.64,North,0,1.0,4.0,92,0.00,,,0.00,meteohub,2013-09-22 08:20:00,
2013-09-22 04:25:00,72.7,70.2,29.63,North,0,4.0,4.0,92,0.00,,,0.00,meteohub,2013-09-22 08:25:00,
2013-09-22 04:30:00,72.7,70.0,29.64,NNE,23,2.0,4.0,91,0.00,,,0.00,meteohub,2013-09-22 08:30:00,
2013-09-22 04:35:00,72.5,69.8,29.63,NE,45,2.0,4.0,91,0.00,,,0.00,meteohub,2013-09-22 08:35:00,
2013-09-22 04:40:00,72.5,69.8,29.63,NE,45,3.0,4.0,91,0.00,,,0.00,meteohub,2013-09-22 08:40:00,
2013-09-22 04:45:00,72.3,69.6,29.63,North,0,1.0,4.0,91,0.00,,,0.00,meteohub,2013-09-22 08:45:00,
2013-09-22 04:50:00,72.3,69.8,29.63,East,90,2.0,4.0,92,0.00,,,0.00,meteohub,2013-09-22 08:50:00,
2013-09-22 04:55:00,72.1,69.6,29.63,North,0,4.0,4.0,92,0.00,,,0.00,meteohub,2013-09-22 08:55:00,
2013-09-22 05:00:00,72.0,69.4,29.63,NE,45,5.0,5.0,92,0.00,,,0.00,meteohub,2013-09-22 09:00:00,
2013-09-22 05:05:00,71.8,69.3,29.63,NE,45,7.0,8.0,92,0.00,,,0.00,meteohub,2013-09-22 09:05:00,
2013-09-22 05:10:00,71.6,69.4,29.62,North,0,1.0,8.0,93,0.00,,,0.00,meteohub,2013-09-22 09:10:00,
2013-09-22 05:15:00,71.6,69.4,29.63,NE,45,1.0,8.0,93,0.00,,,0.00,meteohub,2013-09-22 09:15:00,
2013-09-22 05:20:00,71.4,69.6,29.63,NE,45,1.0,7.0,94,0.00,,,0.00,meteohub,2013-09-22 09:20:00,
2013-09-22 05:25:00,71.2,69.8,29.63,North,0,2.0,6.0,95,0.00,,,0.00,meteohub,2013-09-22 09:25:00,
2013-09-22 05:30:00,71.1,69.6,29.63,NE,45,2.0,6.0,95,0.00,,,0.00,meteohub,2013-09-22 09:30:00,
2013-09-22 05:35:00,70.9,69.6,29.63,NW,315,1.0,4.0,96,0.00,,,0.00,meteohub,2013-09-22 09:35:00,
2013-09-22 05:40:00,70.9,69.6,29.63,North,0,5.0,5.0,96,0.00,,,0.00,meteohub,2013-09-22 09:40:00,
2013-09-22 05:45:00,70.7,69.4,29.62,North,0,1.0,5.0,96,0.00,,,0.00,meteohub,2013-09-22 09:45:00,
2013-09-22 05:50:00,70.5,69.6,29.62,North,0,1.0,5.0,97,0.00,,,0.00,meteohub,2013-09-22 09:50:00,
2013-09-22 05:55:00,70.5,69.6,29.62,NE,45,4.0,5.0,97,0.00,,,0.00,meteohub,2013-09-22 09:55:00,
2013-09-22 06:00:00,70.3,69.4,29.63,NNE,23,2.0,7.0,97,0.00,,,0.00,meteohub,2013-09-22 10:00:00,
2013-09-22 06:05:00,70.3,69.4,29.63,NNE,23,2.0,7.0,97,0.00,,,0.00,meteohub,2013-09-22 10:05:00,
2013-09-22 06:10:00,70.2,69.3,29.63,NE,45,4.0,7.0,97,0.00,,,0.00,meteohub,2013-09-22 10:10:00,
2013-09-22 06:16:00,70.2,69.3,29.63,NE,45,2.0,8.0,97,0.00,,,0.00,meteohub,2013-09-22 10:16:00,
2013-09-22 06:21:00,70.2,69.3,29.63,NE,45,2.0,8.0,97,0.00,,,0.00,meteohub,2013-09-22 10:21:00,
2013-09-22 06:26:00,70.2,69.3,29.64,NE,45,2.0,8.0,97,0.00,,,0.00,meteohub,2013-09-22 10:26:00,
2013-09-22 06:31:00,70.0,69.1,29.63,North,0,5.0,6.0,97,0.00,,,0.00,meteohub,2013-09-22 10:31:00,
2013-09-22 06:36:00,69.8,68.9,29.63,NW,315,2.0,6.0,97,0.00,,,0.00,meteohub,2013-09-22 10:36:00,
2013-09-22 06:41:00,69.6,69.1,29.63,East,90,1.0,5.0,98,0.00,,,0.00,meteohub,2013-09-22 10:41:00,
2013-09-22 06:46:00,69.6,69.3,29.63,SE,135,1.0,5.0,99,0.00,,,0.00,meteohub,2013-09-22 10:46:00,
2013-09-22 06:51:00,69.4,69.1,29.64,NE,45,3.0,5.0,99,0.00,,,0.00,meteohub,2013-09-22 10:51:00,
2013-09-22 06:56:00,69.4,69.1,29.64,North,0,5.0,5.0,99,0.00,,,0.00,meteohub,2013-09-22 10:56:00,
2013-09-22 07:01:00,69.3,68.9,29.63,North,0,1.0,6.0,99,0.00,,,0.00,meteohub,2013-09-22 11:01:00,
2013-09-22 07:06:00,69.3,68.9,29.63,North,0,2.0,6.0,99,0.00,,,0.00,meteohub,2013-09-22 11:06:00,
2013-09-22 07:11:00,69.3,68.9,29.64,NE,45,1.0,5.0,99,0.00,,,0.00,meteohub,2013-09-22 11:11:00,
2013-09-22 07:16:00,69.1,68.7,29.64,NE,45,1.0,2.0,99,0.00,,,0.00,meteohub,2013-09-22 11:16:00,
2013-09-22 07:20:00,69.1,68.7,29.63,NE,45,1.0,2.0,99,0.00,,,0.00,meteohub,2013-09-22 11:20:00,
2013-09-22 07:25:00,68.9,68.5,29.64,North,0,1.0,2.0,99,0.00,,,0.00,meteohub,2013-09-22 11:25:00,
2013-09-22 07:30:00,68.9,68.5,29.64,NE,45,2.0,2.0,99,0.00,,,0.00,meteohub,2013-09-22 11:30:00,
2013-09-22 07:35:00,68.7,68.4,29.64,NE,45,1.0,2.0,99,0.00,,,0.00,meteohub,2013-09-22 11:35:00,
2013-09-22 07:40:00,68.5,68.2,29.64,NE,45,1.0,2.0,99,0.00,,,0.00,meteohub,2013-09-22 11:40:00,
2013-09-22 07:45:00,68.5,68.2,29.64,NE,45,1.0,2.0,99,0.00,,,0.00,meteohub,2013-09-22 11:45:00,
2013-09-22 07:50:00,68.5,68.2,29.64,NE,45,1.0,4.0,99,0.00,,,0.00,meteohub,2013-09-22 11:50:00,
2013-09-22 07:56:00,68.4,68.0,29.64,NE,45,1.0,4.0,99,0.00,,,0.00,meteohub,2013-09-22 11:56:00,
2013-09-22 08:00:00,68.4,68.0,29.64,North,0,1.0,4.0,99,0.00,,,0.00,meteohub,2013-09-22 12:00:00,
2013-09-22 08:05:00,68.4,68.0,29.65,North,0,1.0,2.0,99,0.00,,,0.00,meteohub,2013-09-22 12:05:00,
2013-09-22 08:10:00,68.4,68.0,29.65,NE,45,2.0,2.0,99,0.00,,,0.00,meteohub,2013-09-22 12:10:00,
2013-09-22 08:15:00,68.4,68.0,29.65,NE,45,1.0,2.0,99,0.00,,,0.00,meteohub,2013-09-22 12:15:00,
2013-09-22 08:20:00,68.4,68.0,29.65,NE,45,1.0,2.0,99,0.00,,,0.00,meteohub,2013-09-22 12:20:00,
2013-09-22 08:25:00,68.4,68.0,29.65,NW,315,1.0,2.0,99,0.00,,,0.00,meteohub,2013-09-22 12:25:00,
2013-09-22 08:30:00,68.4,68.0,29.66,North,0,1.0,2.0,99,0.00,,,0.00,meteohub,2013-09-22 12:30:00,
2013-09-22 08:35:00,68.4,68.0,29.65,NE,45,3.0,7.0,99,0.00,,,0.00,meteohub,2013-09-22 12:35:00,
2013-09-22 08:41:00,68.2,67.8,29.65,East,90,3.0,7.0,99,0.00,,,0.00,meteohub,2013-09-22 12:41:00,
2013-09-22 08:46:00,68.2,67.8,29.65,NE,45,7.0,7.0,99,0.00,,,0.00,meteohub,2013-09-22 12:46:00,
2013-09-22 08:51:00,68.2,67.8,29.67,NW,315,1.0,7.0,99,0.00,,,0.00,meteohub,2013-09-22 12:51:00,
2013-09-22 08:56:00,68.2,67.6,29.66,NE,45,1.0,7.0,98,0.00,,,0.00,meteohub,2013-09-22 12:56:00,
2013-09-22 09:01:00,68.2,67.6,29.66,NE,45,1.0,7.0,98,0.00,,,0.00,meteohub,2013-09-22 13:01:00,
2013-09-22 09:06:00,68.4,67.5,29.66,NE,45,0.0,2.0,97,0.00,,,0.00,meteohub,2013-09-22 13:06:00,
2013-09-22 09:11:00,69.4,68.2,29.66,NW,315,3.0,3.0,96,0.00,,,0.00,meteohub,2013-09-22 13:11:00,
2013-09-22 09:16:00,69.8,67.6,29.66,NE,45,2.0,4.0,93,0.00,,,0.00,meteohub,2013-09-22 13:16:00,
2013-09-22 09:21:00,70.2,67.6,29.66,NE,45,5.0,5.0,92,0.00,,,0.00,meteohub,2013-09-22 13:21:00,
2013-09-22 09:26:00,70.3,67.3,29.66,NE,45,7.0,7.0,90,0.00,,,0.00,meteohub,2013-09-22 13:26:00,
2013-09-22 09:31:00,70.7,67.6,29.66,East,90,1.0,9.0,90,0.00,,,0.00,meteohub,2013-09-22 13:31:00,
2013-09-22 09:36:00,71.4,67.6,29.66,East,90,5.0,9.0,88,0.00,,,0.00,meteohub,2013-09-22 13:36:00,
2013-09-22 09:41:00,72.3,67.3,29.66,NNE,23,2.0,9.0,84,0.00,,,0.00,meteohub,2013-09-22 13:41:00,
2013-09-22 09:46:00,73.2,67.5,29.66,North,0,7.0,8.0,82,0.00,,,0.00,meteohub,2013-09-22 13:46:00,
2013-09-22 09:51:00,73.6,67.8,29.66,NE,45,5.0,8.0,82,0.00,,,0.00,meteohub,2013-09-22 13:51:00,
2013-09-22 09:56:00,73.8,67.6,29.66,North,0,9.0,9.0,81,0.00,,,0.00,meteohub,2013-09-22 13:56:00,
2013-09-22 10:01:00,74.3,67.3,29.67,NE,45,1.0,9.0,79,0.00,,,0.00,meteohub,2013-09-22 14:01:00,
2013-09-22 10:06:00,74.3,67.3,29.67,NE,45,1.0,9.0,79,0.00,,,0.00,meteohub,2013-09-22 14:06:00,
2013-09-22 10:11:00,75.0,67.6,29.68,East,90,2.0,9.0,78,0.00,,,0.00,meteohub,2013-09-22 14:11:00,
2013-09-22 10:16:00,75.6,67.1,29.68,NE,45,9.0,9.0,75,0.00,,,0.00,meteohub,2013-09-22 14:16:00,
2013-09-22 10:21:00,75.6,67.1,29.67,North,0,9.0,11.0,75,0.00,,,0.00,meteohub,2013-09-22 14:21:00,
2013-09-22 10:26:00,75.9,68.2,29.68,North,0,2.0,11.0,77,0.00,,,0.00,meteohub,2013-09-22 14:26:00,
2013-09-22 10:31:00,77.0,67.6,29.67,East,90,2.0,11.0,73,0.00,,,0.00,meteohub,2013-09-22 14:31:00,
2013-09-22 10:36:00,76.6,67.6,29.68,SSW,203,8.0,9.0,74,0.00,,,0.00,meteohub,2013-09-22 14:36:00,
2013-09-22 10:41:00,76.6,68.2,29.68,North,0,2.0,11.0,75,0.00,,,0.00,meteohub,2013-09-22 14:41:00,
2013-09-22 10:46:00,77.2,68.2,29.68,NE,45,5.0,11.0,74,0.00,,,0.00,meteohub,2013-09-22 14:46:00,
2013-09-22 10:51:00,77.7,68.4,29.68,East,90,2.0,11.0,73,0.00,,,0.00,meteohub,2013-09-22 14:51:00,
2013-09-22 10:56:00,78.1,68.7,29.68,NNE,23,8.0,10.0,73,0.00,,,0.00,meteohub,2013-09-22 14:56:00,
2013-09-22 11:01:00,78.1,69.1,29.68,NE,45,1.0,8.0,74,0.00,,,0.00,meteohub,2013-09-22 15:01:00,
2013-09-22 11:06:00,78.6,69.3,29.68,East,90,9.0,9.0,73,0.00,,,0.00,meteohub,2013-09-22 15:06:00,
2013-09-22 11:11:00,79.0,69.3,29.69,North,0,1.0,9.0,72,0.00,,,0.00,meteohub,2013-09-22 15:11:00,
2013-09-22 11:16:00,79.7,69.4,29.69,NE,45,1.0,9.0,71,0.00,,,0.00,meteohub,2013-09-22 15:16:00,
2013-09-22 11:21:00,79.3,69.1,29.69,NE,45,4.0,9.0,71,0.00,,,0.00,meteohub,2013-09-22 15:21:00,
2013-09-22 11:26:00,79.9,70.0,29.69,NE,45,5.0,7.0,72,0.00,,,0.00,meteohub,2013-09-22 15:26:00,
2013-09-22 11:31:00,79.9,70.0,29.69,NE,45,1.0,9.0,72,0.00,,,0.00,meteohub,2013-09-22 15:31:00,
2013-09-22 11:36:00,80.2,69.6,29.69,East,90,4.0,9.0,70,0.00,,,0.00,meteohub,2013-09-22 15:36:00,
2013-09-22 11:41:00,80.2,70.0,29.69,NE,45,1.0,9.0,71,0.00,,,0.00,meteohub,2013-09-22 15:41:00,
2013-09-22 11:46:00,80.8,70.2,29.69,North,0,1.0,5.0,70,0.00,,,0.00,meteohub,2013-09-22 15:46:00,
2013-09-22 11:51:00,81.0,69.8,29.69,East,90,2.0,8.0,69,0.00,,,0.00,meteohub,2013-09-22 15:51:00,
2013-09-22 11:56:00,81.9,70.7,29.69,NE,45,2.0,8.0,69,0.00,,,0.00,meteohub,2013-09-22 15:56:00,
2013-09-22 12:01:00,81.3,70.2,29.69,NE,45,7.0,8.0,69,0.00,,,0.00,meteohub,2013-09-22 16:01:00,
2013-09-22 12:06:00,81.3,69.8,29.69,North,0,6.0,8.0,68,0.00,,,0.00,meteohub,2013-09-22 16:06:00,
2013-09-22 12:11:00,81.7,70.2,29.69,NE,45,1.0,8.0,68,0.00,,,0.00,meteohub,2013-09-22 16:11:00,
2013-09-22 12:16:00,82.4,70.0,29.68,North,0,1.0,8.0,66,0.00,,,0.00,meteohub,2013-09-22 16:16:00,
2013-09-22 12:21:00,82.6,70.0,29.69,NE,45,3.0,8.0,66,0.00,,,0.00,meteohub,2013-09-22 16:21:00,
2013-09-22 12:26:00,82.9,70.3,29.68,North,0,4.0,8.0,66,0.00,,,0.00,meteohub,2013-09-22 16:26:00,
2013-09-22 12:31:00,82.6,70.5,29.68,North,0,7.0,11.0,67,0.00,,,0.00,meteohub,2013-09-22 16:31:00,
2013-09-22 12:37:00,83.1,70.5,29.68,NE,45,1.0,11.0,66,0.00,,,0.00,meteohub,2013-09-22 16:37:00,
2013-09-22 12:42:00,83.7,70.7,29.68,East,90,2.0,11.0,65,0.00,,,0.00,meteohub,2013-09-22 16:42:00,
2013-09-22 12:47:00,84.6,70.5,29.68,NE,45,11.0,11.0,63,0.00,,,0.00,meteohub,2013-09-22 16:47:00,
2013-09-22 12:52:00,84.2,70.2,29.68,East,90,10.0,14.0,63,0.00,,,0.00,meteohub,2013-09-22 16:52:00,
2013-09-22 12:57:00,84.4,70.3,29.68,NE,45,2.0,15.0,63,0.00,,,0.00,meteohub,2013-09-22 16:57:00,
2013-09-22 13:02:00,82.9,69.4,29.68,North,0,10.0,15.0,64,0.00,,,0.00,meteohub,2013-09-22 17:02:00,
2013-09-22 13:07:00,82.0,70.0,29.67,NE,45,2.0,15.0,67,0.00,,,0.00,meteohub,2013-09-22 17:07:00,
2013-09-22 13:12:00,82.9,69.4,29.67,NE,45,11.0,13.0,64,0.00,,,0.00,meteohub,2013-09-22 17:12:00,
2013-09-22 13:17:00,83.8,70.0,29.67,North,0,11.0,13.0,63,0.00,,,0.00,meteohub,2013-09-22 17:17:00,
2013-09-22 13:22:00,84.6,70.2,29.67,East,90,6.0,13.0,62,0.00,,,0.00,meteohub,2013-09-22 17:22:00,
2013-09-22 13:27:00,84.7,70.3,29.67,East,90,10.0,11.0,62,0.00,,,0.00,meteohub,2013-09-22 17:27:00,
2013-09-22 13:32:00,84.6,70.2,29.67,NE,45,10.0,11.0,62,0.00,,,0.00,meteohub,2013-09-22 17:32:00,
2013-09-22 13:37:00,84.9,70.5,29.66,NE,45,10.0,11.0,62,0.00,,,0.00,meteohub,2013-09-22 17:37:00,
2013-09-22 13:42:00,84.6,70.2,29.66,NE,45,2.0,12.0,62,0.00,,,0.00,meteohub,2013-09-22 17:42:00,
2013-09-22 13:47:00,85.8,71.2,29.66,SW,225,5.0,13.0,62,0.00,,,0.00,meteohub,2013-09-22 17:47:00,
2013-09-22 13:52:00,84.2,69.8,29.66,NE,45,7.0,13.0,62,0.00,,,0.00,meteohub,2013-09-22 17:52:00,
2013-09-22 13:57:00,83.3,69.8,29.66,East,90,2.0,13.0,64,0.00,,,0.00,meteohub,2013-09-22 17:57:00,
2013-09-22 14:02:00,83.3,70.3,29.65,ENE,68,7.0,10.0,65,0.00,,,0.00,meteohub,2013-09-22 18:02:00,
2013-09-22 14:07:00,82.9,69.4,29.65,North,0,8.0,11.0,64,0.00,,,0.00,meteohub,2013-09-22 18:07:00,
2013-09-22 14:12:00,81.9,70.3,29.65,North,0,6.0,11.0,68,0.00,,,0.00,meteohub,2013-09-22 18:12:00,
2013-09-22 14:17:00,81.9,70.3,29.65,NE,45,8.0,10.0,68,0.00,,,0.00,meteohub,2013-09-22 18:17:00,
2013-09-22 14:22:00,81.9,70.3,29.65,East,90,8.0,8.0,68,0.00,,,0.00,meteohub,2013-09-22 18:22:00,
2013-09-22 14:27:00,82.2,71.1,29.65,North,0,4.0,11.0,69,0.00,,,0.00,meteohub,2013-09-22 18:27:00,
2013-09-22 14:32:00,82.4,70.7,29.65,NW,315,2.0,11.0,68,0.00,,,0.00,meteohub,2013-09-22 18:32:00,
2013-09-22 14:37:00,81.7,70.2,29.65,NE,45,7.0,11.0,68,0.00,,,0.00,meteohub,2013-09-22 18:37:00,
2013-09-22 14:42:00,81.5,70.7,29.65,East,90,7.0,8.0,70,0.00,,,0.00,meteohub,2013-09-22 18:42:00,
2013-09-22 14:47:00,82.2,70.5,29.65,NE,45,8.0,8.0,68,0.00,,,0.00,meteohub,2013-09-22 18:47:00,
2013-09-22 14:52:00,81.9,70.7,29.65,East,90,1.0,9.0,69,0.00,,,0.00,meteohub,2013-09-22 18:52:00,
2013-09-22 14:57:00,81.3,70.2,29.64,NE,45,1.0,9.0,69,0.00,,,0.00,meteohub,2013-09-22 18:57:00,
2013-09-22 15:02:00,83.8,71.2,29.64,NE,45,2.0,8.0,66,0.00,,,0.00,meteohub,2013-09-22 19:02:00,
2013-09-22 15:07:00,84.2,70.2,29.64,North,0,4.0,10.0,63,0.00,,,0.00,meteohub,2013-09-22 19:07:00,
2013-09-22 15:12:00,82.8,70.2,29.63,NNE,23,8.0,10.0,66,0.00,,,0.00,meteohub,2013-09-22 19:12:00,
2013-09-22 15:17:00,83.1,71.1,29.63,NE,45,4.0,10.0,67,0.00,,,0.00,meteohub,2013-09-22 19:17:00,
2013-09-22 15:22:00,83.3,70.3,29.63,East,90,1.0,9.0,65,0.00,,,0.00,meteohub,2013-09-22 19:22:00,
2013-09-22 15:27:00,81.7,70.2,29.63,North,0,1.0,9.0,68,0.00,,,0.00,meteohub,2013-09-22 19:27:00,
2013-09-22 15:32:00,81.0,70.2,29.63,NE,45,1.0,9.0,70,0.00,,,0.00,meteohub,2013-09-22 19:32:00,
2013-09-22 15:37:00,81.1,71.6,29.63,North,0,1.0,9.0,73,0.00,,,0.00,meteohub,2013-09-22 19:37:00,
2013-09-22 15:42:00,81.7,71.4,29.63,NE,45,4.0,7.0,71,0.00,,,0.00,meteohub,2013-09-22 19:42:00,
2013-09-22 15:47:00,84.7,71.6,29.62,North,0,2.0,6.0,65,0.00,,,0.00,meteohub,2013-09-22 19:47:00,
2013-09-22 15:52:00,85.1,70.2,29.63,NE,45,8.0,8.0,61,0.00,,,0.00,meteohub,2013-09-22 19:52:00,
2013-09-22 15:57:00,83.3,70.3,29.62,NNE,23,6.0,9.0,65,0.00,,,0.00,meteohub,2013-09-22 19:57:00,
2013-09-22 16:02:00,84.2,71.2,29.62,NE,45,4.0,9.0,65,0.00,,,0.00,meteohub,2013-09-22 20:02:00,
2013-09-22 16:07:00,84.7,69.8,29.61,NE,45,6.0,9.0,61,0.00,,,0.00,meteohub,2013-09-22 20:07:00,
2013-09-22 16:12:00,84.2,69.8,29.62,East,90,1.0,10.0,62,0.00,,,0.00,meteohub,2013-09-22 20:12:00,
2013-09-22 16:17:00,85.1,70.5,29.62,NE,45,2.0,10.0,62,0.00,,,0.00,meteohub,2013-09-22 20:17:00,
2013-09-22 16:22:00,85.5,70.9,29.61,SE,135,5.0,10.0,62,0.00,,,0.00,meteohub,2013-09-22 20:22:00,
2013-09-22 16:27:00,85.3,70.7,29.61,South,180,6.0,7.0,62,0.00,,,0.00,meteohub,2013-09-22 20:27:00,
2013-09-22 16:32:00,83.8,70.0,29.61,NE,45,5.0,8.0,63,0.00,,,0.00,meteohub,2013-09-22 20:32:00,
2013-09-22 16:37:00,83.1,69.6,29.60,North,0,2.0,8.0,64,0.00,,,0.00,meteohub,2013-09-22 20:37:00,
2013-09-22 16:42:00,83.5,69.6,29.60,NE,45,7.0,8.0,63,0.00,,,0.00,meteohub,2013-09-22 20:42:00,
2013-09-22 16:47:00,83.5,69.6,29.60,NE,45,1.0,7.0,63,0.00,,,0.00,meteohub,2013-09-22 20:47:00,
2013-09-22 16:52:00,84.2,71.2,29.60,NE,45,1.0,7.0,65,0.00,,,0.00,meteohub,2013-09-22 20:52:00,
2013-09-22 16:57:00,83.8,70.3,29.60,North,0,1.0,7.0,64,0.00,,,0.00,meteohub,2013-09-22 20:57:00,
2013-09-22 17:02:00,83.3,69.8,29.59,NE,45,8.0,8.0,64,0.00,,,0.00,meteohub,2013-09-22 21:02:00,
2013-09-22 17:07:00,85.1,71.1,29.59,ESE,113,1.0,8.0,63,0.00,,,0.00,meteohub,2013-09-22 21:07:00,
2013-09-22 17:12:00,84.0,69.6,29.59,NE,45,7.0,8.0,62,0.00,,,0.00,meteohub,2013-09-22 21:12:00,
2013-09-22 17:17:00,84.0,70.0,29.59,North,0,2.0,8.0,63,0.00,,,0.00,meteohub,2013-09-22 21:17:00,
2013-09-22 17:22:00,84.2,69.3,29.59,East,90,7.0,10.0,61,0.00,,,0.00,meteohub,2013-09-22 21:22:00,
2013-09-22 17:27:00,84.0,70.5,29.58,SE,135,1.0,10.0,64,0.00,,,0.00,meteohub,2013-09-22 21:27:00,
2013-09-22 17:32:00,83.8,69.4,29.58,NE,45,5.0,10.0,62,0.00,,,0.00,meteohub,2013-09-22 21:32:00,
2013-09-22 17:37:00,84.0,69.6,29.59,North,0,8.0,8.0,62,0.00,,,0.00,meteohub,2013-09-22 21:37:00,
2013-09-22 17:42:00,83.8,70.0,29.58,NE,45,2.0,8.0,63,0.00,,,0.00,meteohub,2013-09-22 21:42:00,
2013-09-22 17:47:00,83.5,69.6,29.59,East,90,1.0,8.0,63,0.00,,,0.00,meteohub,2013-09-22 21:47:00,
2013-09-22 17:52:00,83.3,69.8,29.58,North,0,2.0,8.0,64,0.00,,,0.00,meteohub,2013-09-22 21:52:00,
2013-09-22 17:57:00,83.3,69.4,29.58,NE,45,1.0,4.0,63,0.00,,,0.00,meteohub,2013-09-22 21:57:00,
2013-09-22 18:02:00,83.3,69.8,29.59,NE,45,1.0,4.0,64,0.00,,,0.00,meteohub,2013-09-22 22:02:00,
2013-09-22 18:07:00,83.1,69.6,29.58,North,0,4.0,4.0,64,0.00,,,0.00,meteohub,2013-09-22 22:07:00,
2013-09-22 18:12:00,83.1,70.2,29.59,NE,45,3.0,4.0,65,0.00,,,0.00,meteohub,2013-09-22 22:12:00,
2013-09-22 18:17:00,82.9,69.4,29.59,East,90,2.0,4.0,64,0.00,,,0.00,meteohub,2013-09-22 22:17:00,
2013-09-22 18:22:00,82.6,69.6,29.59,East,90,2.0,7.0,65,0.00,,,0.00,meteohub,2013-09-22 22:22:00,
2013-09-22 18:27:00,82.6,70.0,29.59,East,90,1.0,7.0,66,0.00,,,0.00,meteohub,2013-09-22 22:27:00,
2013-09-22 18:32:00,82.9,70.0,29.59,SE,135,1.0,7.0,65,0.00,,,0.00,meteohub,2013-09-22 22:32:00,
2013-09-22 18:37:00,82.6,69.6,29.59,NE,45,1.0,3.0,65,0.00,,,0.00,meteohub,2013-09-22 22:37:00,
2013-09-22 18:42:00,82.2,70.2,29.59,East,90,1.0,3.0,67,0.00,,,0.00,meteohub,2013-09-22 22:42:00,
2013-09-22 18:47:00,82.2,70.5,29.59,NE,45,1.0,4.0,68,0.00,,,0.00,meteohub,2013-09-22 22:47:00,
2013-09-22 18:52:00,82.2,70.5,29.59,East,90,1.0,4.0,68,0.00,,,0.00,meteohub,2013-09-22 22:52:00,
2013-09-22 18:57:00,82.0,70.3,29.59,NE,45,1.0,4.0,68,0.00,,,0.00,meteohub,2013-09-22 22:57:00,
2013-09-22 19:02:00,82.0,70.9,29.59,NE,45,1.0,1.0,69,0.00,,,0.00,meteohub,2013-09-22 23:02:00,
2013-09-22 19:07:00,81.7,70.5,29.59,NE,45,1.0,1.0,69,0.00,,,0.00,meteohub,2013-09-22 23:07:00,
2013-09-22 19:12:00,81.3,70.2,29.59,NE,45,1.0,1.0,69,0.00,,,0.00,meteohub,2013-09-22 23:12:00,
2013-09-22 19:17:00,81.1,70.0,29.59,East,90,2.0,2.0,69,0.00,,,0.00,meteohub,2013-09-22 23:17:00,
2013-09-22 19:22:00,81.1,70.0,29.60,NW,315,1.0,2.0,69,0.00,,,0.00,meteohub,2013-09-22 23:22:00,
2013-09-22 19:27:00,81.1,70.3,29.60,East,90,1.0,2.0,70,0.00,,,0.00,meteohub,2013-09-22 23:27:00,
2013-09-22 19:32:00,81.0,70.2,29.60,East,90,1.0,2.0,70,0.00,,,0.00,meteohub,2013-09-22 23:32:00,
2013-09-22 19:37:00,80.6,70.0,29.60,NE,45,1.0,2.0,70,0.00,,,0.00,meteohub,2013-09-22 23:37:00,
2013-09-22 19:42:00,80.4,70.5,29.60,NE,45,1.0,2.0,72,0.00,,,0.00,meteohub,2013-09-22 23:42:00,
2013-09-22 19:47:00,80.2,70.3,29.60,East,90,1.0,2.0,72,0.00,,,0.00,meteohub,2013-09-22 23:47:00,
2013-09-22 19:52:00,80.1,70.2,29.60,East,90,1.0,4.0,72,0.00,,,0.00,meteohub,2013-09-22 23:52:00,
2013-09-22 19:57:00,80.1,70.7,29.60,East,90,1.0,4.0,73,0.00,,,0.00,meteohub,2013-09-22 23:57:00,
2013-09-22 20:02:00,79.9,70.0,29.60,East,90,1.0,2.0,72,0.00,,,0.00,meteohub,2013-09-23 00:02:00,
2013-09-22 20:07:00,79.2,68.9,29.60,East,90,3.0,8.0,71,0.00,,,0.00,meteohub,2013-09-23 00:07:00,
2013-09-22 20:12:00,78.6,70.3,29.61,East,90,8.0,9.0,76,0.00,,,0.00,meteohub,2013-09-23 00:12:00,
2013-09-22 20:17:00,78.4,71.1,29.61,East,90,1.0,9.0,78,0.00,,,0.00,meteohub,2013-09-23 00:17:00,
2013-09-22 20:22:00,78.3,72.3,29.62,SE,135,1.0,9.0,82,0.00,,,0.00,meteohub,2013-09-23 00:22:00,
2013-09-22 20:27:00,77.9,72.3,29.62,East,90,1.0,9.0,83,0.00,,,0.00,meteohub,2013-09-23 00:27:00,
2013-09-22 20:32:00,77.4,71.1,29.62,East,90,1.0,2.0,81,0.00,,,0.00,meteohub,2013-09-23 00:32:00,
2013-09-22 20:37:00,77.0,70.7,29.62,East,90,1.0,8.0,81,0.00,,,0.00,meteohub,2013-09-23 00:37:00,
2013-09-22 20:42:00,76.6,70.7,29.62,East,90,2.0,8.0,82,0.00,,,0.00,meteohub,2013-09-23 00:42:00,
2013-09-22 20:47:00,76.5,70.5,29.62,East,90,7.0,11.0,82,0.00,,,0.00,meteohub,2013-09-23 00:47:00,
2013-09-22 20:52:00,76.5,70.5,29.62,East,90,7.0,11.0,82,0.00,,,0.00,meteohub,2013-09-23 00:52:00,
2013-09-22 20:57:00,76.1,70.2,29.63,East,90,9.0,9.0,82,0.00,,,0.00,meteohub,2013-09-23 00:57:00,
2013-09-22 21:02:00,76.1,70.2,29.63,North,0,1.0,9.0,82,0.00,,,0.00,meteohub,2013-09-23 01:02:00,
2013-09-22 21:07:00,76.1,70.2,29.62,SE,135,1.0,10.0,82,0.00,,,0.00,meteohub,2013-09-23 01:07:00,
2013-09-22 21:12:00,76.1,70.2,29.62,ENE,68,2.0,10.0,82,0.00,,,0.00,meteohub,2013-09-23 01:12:00,
2013-09-22 21:17:00,75.9,70.0,29.63,NNE,23,1.0,11.0,82,0.00,,,0.00,meteohub,2013-09-23 01:17:00,
2013-09-22 21:22:00,75.9,70.0,29.63,NE,45,2.0,11.0,82,0.00,,,0.00,meteohub,2013-09-23 01:22:00,
2013-09-22 21:27:00,75.9,69.6,29.63,East,90,2.0,8.0,81,0.00,,,0.00,meteohub,2013-09-23 01:27:00,
2013-09-22 21:32:00,75.7,69.4,29.63,East,90,13.0,13.0,81,0.00,,,0.00,meteohub,2013-09-23 01:32:00,
2013-09-22 21:37:00,75.6,69.3,29.63,East,90,2.0,13.0,81,0.00,,,0.00,meteohub,2013-09-23 01:37:00,
2013-09-22 21:42:00,75.6,69.3,29.63,NNE,23,9.0,13.0,81,0.00,,,0.00,meteohub,2013-09-23 01:42:00,
2013-09-22 21:47:00,75.2,68.9,29.64,SE,135,11.0,13.0,81,0.00,,,0.00,meteohub,2013-09-23 01:47:00,
2013-09-22 21:53:00,74.5,68.9,29.64,East,90,9.0,13.0,83,0.00,,,0.00,meteohub,2013-09-23 01:53:00,
2013-09-22 21:58:00,73.9,68.7,29.64,NE,45,6.0,14.0,84,0.00,,,0.00,meteohub,2013-09-23 01:58:00,
2013-09-22 22:04:00,73.9,68.7,29.64,NE,45,6.0,14.0,84,0.00,,,0.00,meteohub,2013-09-23 02:04:00,
2013-09-22 22:09:00,73.6,68.7,29.63,NE,45,2.0,13.0,85,0.00,,,0.00,meteohub,2013-09-23 02:09:00,
2013-09-22 22:14:00,73.6,68.7,29.63,East,90,7.0,11.0,85,0.00,,,0.00,meteohub,2013-09-23 02:14:00,
2013-09-22 22:19:00,73.4,68.5,29.63,NE,45,1.0,7.0,85,0.00,,,0.00,meteohub,2013-09-23 02:19:00,
2013-09-22 22:24:00,73.4,68.5,29.63,NE,45,4.0,7.0,85,0.00,,,0.00,meteohub,2013-09-23 02:24:00,
2013-09-22 22:29:00,73.2,68.4,29.63,NE,45,1.0,7.0,85,0.00,,,0.00,meteohub,2013-09-23 02:29:00,
2013-09-22 22:34:00,73.2,68.7,29.63,NW,315,4.0,4.0,86,0.00,,,0.00,meteohub,2013-09-23 02:34:00,
2013-09-22 22:39:00,73.2,68.4,29.64,NE,45,1.0,4.0,85,0.00,,,0.00,meteohub,2013-09-23 02:39:00,
2013-09-22 22:44:00,73.4,68.9,29.63,North,0,1.0,4.0,86,0.00,,,0.00,meteohub,2013-09-23 02:44:00,
2013-09-22 22:49:00,73.4,68.9,29.64,NE,45,1.0,4.0,86,0.00,,,0.00,meteohub,2013-09-23 02:49:00,
2013-09-22 22:54:00,73.4,68.9,29.63,North,0,1.0,2.0,86,0.00,,,0.00,meteohub,2013-09-23 02:54:00,
2013-09-22 22:59:00,73.2,69.1,29.63,East,90,1.0,1.0,87,0.00,,,0.00,meteohub,2013-09-23 02:59:00,
2013-09-22 23:04:00,73.2,68.7,29.63,East,90,1.0,1.0,86,0.00,,,0.00,meteohub,2013-09-23 03:04:00,
2013-09-22 23:09:00,73.6,68.4,29.64,East,90,3.0,3.0,84,0.00,,,0.00,meteohub,2013-09-23 03:09:00,
2013-09-22 23:14:00,74.1,68.5,29.64,NE,45,1.0,4.0,83,0.00,,,0.00,meteohub,2013-09-23 03:14:00,
2013-09-22 23:19:00,74.1,68.2,29.64,NE,45,2.0,4.0,82,0.00,,,0.00,meteohub,2013-09-23 03:19:00,
2013-09-22 23:24:00,74.3,68.4,29.64,ENE,68,1.0,4.0,82,0.00,,,0.00,meteohub,2013-09-23 03:24:00,
2013-09-22 23:29:00,74.3,68.4,29.65,North,0,2.0,4.0,82,0.00,,,0.00,meteohub,2013-09-23 03:29:00,
2013-09-22 23:34:00,74.5,68.5,29.65,NE,45,2.0,4.0,82,0.00,,,0.00,meteohub,2013-09-23 03:34:00,
2013-09-22 23:39:00,74.5,68.5,29.65,NE,45,1.0,2.0,82,0.00,,,0.00,meteohub,2013-09-23 03:39:00,
2013-09-22 23:44:00,74.5,68.5,29.65,NE,45,1.0,5.0,82,0.00,,,0.00,meteohub,2013-09-23 03:44:00,
2013-09-22 23:49:00,74.5,68.5,29.65,NE,45,1.0,5.0,82,0.00,,,0.00,meteohub,2013-09-23 03:49:00,
2013-09-22 23:54:00,74.5,68.5,29.65,NE,45,1.0,5.0,82,0.00,,,0.00,meteohub,2013-09-23 03:54:00,
2013-09-22 23:59:00,74.1,68.5,29.64,East,90,1.0,1.0,83,0.00,,,0.00,meteohub,2013-09-23 03:59:00,